Regional Weather Roundup
Issued by NWS Wakefield, VA

Home | Current Version | Previous Version | Text Only | Print | Product List | Glossary Off
Versions: 1 2 3 4 5 6 7 8 9 10 11 12 13 14 15 16 17 18 19 20 21 22 23 24 25 26 27 28

000
ASUS41 KAKQ 280515
RWRAKQ

REGIONAL WEATHER ROUNDUP
NATIONAL WEATHER SERVICE WAKEFIELD VA
100 AM EDT TUE MAR 28 2017

Note: "fair" indicates few or no clouds below 12,000 feet with no
significant weather and/or obstructions to visibility. * = Denotes
station may not report precipitation (e.g., rain,snow,etc.),
thunder or fog.

VAZ042-051-052>054-056-280600-
NORTHERN VIRGINIA

CITY           SKY/WX    TMP DP  RH WIND       PRES   REMARKS
WASH NATIONAL  CLOUDY    60  56  86 CALM      29.91F
DULLES         CLOUDY    61  57  87 CALM      29.90F
FORT BELVOIR   CLOUDY    59  54  85 CALM      29.90F
QUANTICO       CLOUDY    62  56  80 SW6       29.91F
FREDERICKSBRG* MOCLDY    67  58  73 S6        29.90F
STAFFORD*      MOCLDY    66  57  74 S5        29.95S
WARRENTON      NOT AVBL
CULPEPER*      CLOUDY    60  59  96 CALM      29.91F
MANASSAS*        N/A    N/A N/A N/A CALM      29.90F
LEESBURG*      CLOUDY    61  61 100 SE3       29.91S
WINCHESTER     CLOUDY    52  52 100 CALM      29.89F FOG
FRONT ROYAL*   CLOUDY    59  55  88 S3        29.89S
LURAY*         CLOUDY    59  59 100 CALM      29.91S
$$

VAZ048-049-060>072-079>083-280600-
CENTRAL AND SOUTH CENTRAL VIRGINIA

CITY           SKY/WX    TMP DP  RH WIND       PRES   REMARKS
RICHMOND       CLOUDY    67  57  70 S10       29.94S
CHESTERFIELD*  FAIR      64  45  48 S8        29.96S
PETERSBURG*    CLOUDY    63  55  76 S3        29.95F
HANOVER        MOCLDY    68  55  63 S7        29.95S
TAPPAHANNOCK*  MOCLDY    67  49  53 S7        29.94S
QUINTON*       FAIR      65  57  74 SE8       29.94S
CHARLOTTSVILLE CLOUDY    65  57  75 S5        29.91F
GORDONSVILLE*  CLOUDY    56  55  95 CALM      29.91F
ORANGE*        MOCLDY    59  54  82 CALM      29.93F
LOUISA*        CLOUDY    70  61  73 S5        29.91F
BUMPASS*       FAIR      65  58  78 S6        29.92S
FARMVILLE*     CLOUDY    65  59  82 S5        29.92S
CREWE*         FAIR      64  62  93 S6        29.94S
FORT PICKETT*  FAIR      64  54  70 S8        29.95F
CHASE CITY*    FAIR      65  57  75 S5        29.95S
CLARKSVILLE*   FAIR      64  57  77 S10       29.95S
SOUTH HILL*    PTCLDY    64  57  77 S9        30.01F
LAWRENCEVILLE* FAIR      65  56  70 SW7       29.96S
EMPORIA*       MOCLDY    63  54  72 SE3       29.98S
$$

VAZ088>098-280600-
SOUTHEAST VIRGINIA

CITY           SKY/WX    TMP DP  RH WIND       PRES   REMARKS
NORFOLK        CLOUDY    65  53  65 SW15      29.97S
VIRGINIA BEACH NOT AVBL
NORFOLK NAVAL  NOT AVBL
WEST POINT*    CLOUDY    66  54  63 S6        29.96S
SALUDA*        FAIR      65  56  73 S6        29.94F
NEWPORT NEWS   CLOUDY    66  54  65 SW12      29.96F
LANGLEY AFB    CLOUDY    66  54  65 S12       29.96S
FORT EUSTIS    CLOUDY    65  54  67 VRB5      29.94S
WILLIAMSBURG*  MOCLDY    68  55  64 CALM      29.97S
HR EXEC AP*    FAIR      64  52  63 SW10      29.96S
FRANKLIN*      PTCLDY    64  53  68 S5        29.98S
US460-WAKEFLD  CLOUDY    65  55  70 S6        29.96F
$$

VAZ020-022-025-037-045-280600-
WEST CENTRAL AND SOUTHWEST VIRGINIA

CITY           SKY/WX    TMP DP  RH WIND       PRES   REMARKS
STAUNTON*      CLOUDY    54  53  97 CALM      29.94F
WAYNESBORO*    CLOUDY    58  58 100 CALM      29.93F
HOT SPRINGS VA CLOUDY    57  45  62 S7        30.00S
LYNCHBURG      CLOUDY    61  56  83 CALM      29.94S
DANVILLE       CLOUDY    65  59  81 S6        29.94F
SOUTH BOSTON*  FAIR      67  57  69 S6        29.95R
MARTINSVILLE   FOG       54  53  97 CALM      29.96F VSB 1/2
ROANOKE        MOCLDY    65  54  67 SE3       29.94F
BLACKSBURG     CLEAR     55  51  88 CALM      29.98F
DUBLIN*        PTCLDY    56  51  85 CALM      29.96F
MARION*        LGT RAIN  57  55  92 SW13G29   30.03R
HILLSVILLE*    CLOUDY    59  54  83 S6        29.96F
RICHLANDS*     LGT RAIN  54  54  97 S5        29.98F
WISE*          CLOUDY    54  54 100 SW9       29.97F
ABINGDON*      LGT RAIN  58  56  92 SW5       29.98F
$$

MDZ021>025-VAZ099-100-280600-
SOUTHERN MARYLAND AND THE DELMARVA PENINSULA

CITY           SKY/WX    TMP DP  RH WIND       PRES   REMARKS
PATUXENT RIVER CLOUDY    57  54  89 S3        29.92F
BAY BRIDGE APT MOCLDY    52  50  93 CALM      29.91F FOG
LEONARDTOWN    CLOUDY    64  55  72 S5        29.94S
DOVER          CLOUDY    60  60 100 S6        29.92S
GEORGETOWN     CLOUDY    61  53  75 S8        29.95S
EASTON         PTCLDY    64  55  71 S8        29.96F
CAMBRIDGE      CLEAR     59  54  82 S6        29.93F
SALISBURY      MOCLDY    58  54  86 S5        29.95S
OCEAN CITY     CLOUDY    55  50  83 SW7       29.97S
WALLOPS ISLAND PTCLDY    53  51  93 S8        29.97S
ACCOMACK*      MOCLDY    59  53  79 S7        29.96F
$$

NCZ012>017-030>032-280600-
NORTH CENTRAL AND EASTERN NORTH CAROLINA

CITY           SKY/WX    TMP DP  RH WIND       PRES   REMARKS
ROANOKE RAPIDS FAIR      63  54  72 S8        29.97S
RALEIGH        MOCLDY    67  54  63 SW12      29.99R
ELIZABETH CITY MOCLDY    62  54  74 S9        30.00F
AHOSKIE*         N/A     62  54  73 S6        29.99S
EDENTON*       MOCLDY    61  55  79 CALM      30.01S
CURRITUCK*     MOCLDY    63  54  72 SW5       30.00F
KILL DEVIL HLS NOT AVBL
MANTEO         MOCLDY    60  56  89 SW7       30.02F
CAPE HATTERAS  CLEAR     68  59  73 SW9       30.02F HAZE
TARBORO*       NOT AVBL
GOLDSBORO      CLOUDY    65  59  80 SW7       29.99F
WASHINGTON     PTCLDY    63  55  77 S3        30.01F
GREENVILLE     CLOUDY    64  55  72 SW9       30.01F
NEW BERN       PTCLDY    60  58  92 S6        30.02F
WILMINGTON     CLOUDY    64  58  80 S8        30.02F
$$

VAZ048-280600-
ELSEWHERE

CITY           SKY/WX    TMP DP  RH WIND       PRES   REMARKS
HARRISBURG PA  CLOUDY    52  50  93 CALM      29.92F FOG
BALTIMORE      CLOUDY    56  55  97 CALM      29.90F
ANNAPOLIS      CLOUDY    53  51  93 SE6       29.90F
ANDREWS AFB    CLOUDY    64  56  76 S7        29.90F
PHILADELPHIA   CLOUDY    52  50  93 NE5       29.95F FOG
HENDERSON NC   PTCLDY    63  53  70 S9G16     29.97S
GREENSBORO     MOCLDY    65  60  84 S13       29.94F
ROCKY MOUNT    MOCLDY    64  56  75 S6        29.99F
$$

VAZ100-280600-
MARINE

STATION/POSITION TIME  TEMP    WIND        PRES    WAVE   SWELL
                       AIR SEA DIR/SP/G            HT/PER HT/PER
                 (UTC) (F)     (DEG/KT/KT) (MB)    (FT/S) (FT/S)
CAPE MAY NJ      0448   52 46  140/  8/ 10 1013.5F
LEWES DE         0448   59 46  190/  5/  6 1013.9F
OCEAN-CITY-INLET 0448   48 45  220/  9/ 10 1015.1F
WACHAPREAGUE VA  0448   56 57  220/  6/  9 1014.4F
THOMAS POINT MD  0500   53 46  190/  8/  8   N/A
GOOSES REEF MD   0500   51 47  160/ 14/ 16 1013.4    1/ 2
COVE POINT MD    0448   53     190/ 13/ 14 1013.8F
SOLOMONS ISLAND  0448   55 48  100/  6/  7   N/A
BISHOPS HEAD MD  0448   59 56  190/ 13/ 15 1013.9F
PINEY POINT MD   0448          130/  5/  6   N/A
POTOMAC MD       0500   53 48  160/  6/  6 1012.7    1/ 2
CAMBRIDGE MD     0448   60 46  160/  5/  8 1012.8F
LEWISETTA VA     0448   64 52  210/  9/ 10 1013.1F
RAPPAHANNOCK LGT 0448          170/ 15/ 16 1014.9F
STINGRAY PT      0450   57     240/  6/  8 1014.5R
YORK RVR RNG VA  0448   63     230/ 15/ 18 1013.6F
YORKTOWN VA      0448   67 51  220/ 12/ 14 1013.9F
JAMESTOWN VA     0500   65 56  200/ 10/ 16   N/A     0
DOMINION TERM VA 0448   60     220/ 10/ 12 1014.8S
KIPTOPEKE VA     0448      51  170/  8/  8   N/A
CHES BAY BRIDGE  0442   64 49  210/ 14/ 17 1014.5F
CAPE HENRY VA    0442   65     200/  8/ 14   N/A
WILLOUBY STN VA  0442   66     200/ 13/ 15 1015.6F
S CRANEY ISL VA  0448   65     200/  9/ 10 1014.8R
CAPE HENRY BUOY  0442      51                N/A     3/ 8   2/11
CAPE CHARLES BUO 0451      49                N/A     3/11   2/11
OFFSHORE WE BUOY 0451      51                N/A     4/10   2/11
64NM E OF VA BCH 0450   55 49  200/ 10/ 12 1015.8F   4/10   3/10
DUCK PIER NC     0442   62 49  200/ 10/ 12 1015.4F
44100 DUCK FRF   0405      51                N/A     3/10   2/11
44056 DUCK FRF   0430      51                N/A     3/11   2/11
OREGON INLET NC  0442   60 62  200/ 10/ 12 1016.4S
HATTERAS NC      0442   66 62  200/  7/  9 1016.3F
DIAMOND SHLS NC  0450   72 74  190/ 17/ 19 1016.6F   5/ 9   5/ 9
CAPE LOOKOUT NC  0400   66     200/  7/  8 1017.1F
$$




USA.gov is the U.S. government's official web portal to all federal, state and local government web resources and services.